Regional Weather Roundup
Issued by NWS Wilmington, NC

Home | Current Version | Previous Version | Text Only | Print | Product List | Glossary On
Versions: 1 2 3 4 5 6 7 8 9 10 11 12 13 14 15 16 17 18 19 20 21 22 23 24 25 26 27 28 29 30 31 32 33 34 35 36 37 38 39 40 41 42 43 44 45 46 47 48 49 50
000
ASUS42 KILM 020910
RWRILM
RWRILM
REGIONAL HOURLY WEATHER ROUNDUP
NATIONAL WEATHER SERVICE WILMINGTON NC
500 AM EDT TUE SEP 02 2014

NOTE: "FAIR" INDICATES FEW OR NO CLOUDS BELOW 12,000 FEET WITH NO
SIGNIFICANT WEATHER AND/OR OBSTRUCTIONS TO VISIBILITY.

...............WFO WILMINGTON COUNTY WARNING AREA...............

......COASTAL NC AND SC COUNTIES......

CITY           SKY/WX    TMP DP  RH WIND       PRES   REMARKS
WILMINGTON     MOCLDY    77  75  93 CALM      30.06S
SOUTHPORT      MOCLDY    80  74  83 SW7       30.06S
N MYRTLE BEACH PTCLDY    79  76  90 SW5       30.05F
MYRTLE BEACH   MOCLDY    79  75  89 SW3       30.06S

......INLAND NC AND SC COUNTIES.......

CITY           SKY/WX    TMP DP  RH WIND       PRES   REMARKS
LUMBERTON      CLEAR     76  74  93 CALM      30.05F FOG
ELIZABETHTOWN  CLEAR     75  75 100 CALM      30.06S FOG
WHITEVILLE     PTCLDY    76  74  95 CALM      30.06S
FLORENCE       CLEAR     76  74  93 SW3       30.05F
DARLINGTON     CLEAR     73  70  88 S3        30.07R

....................REST OF NORTH CAROLINA......................

.........EASTERN NC.........

CITY           SKY/WX    TMP DP  RH WIND       PRES   REMARKS
CAPE HATTERAS  CLEAR     78  76  93 W10       30.05S
JACKSONVILLE   CLOUDY    73  72  94 SW3       30.06S
MOREHEAD CITY  PTCLDY    81  76  84 SW7       30.05F
KENANSVILLE    CLEAR     74  72  95 CALM      30.06S FOG
NEW BERN       CLEAR     77  74  90 SW5       30.06F
ELIZABETH CITY PTCLDY    75  73  93 SW7       30.02S

.........CENTRAL NC.........

CITY           SKY/WX    TMP DP  RH WIND       PRES   REMARKS
RALEIGH DURHAM PTCLDY    74  69  85 SW3       30.05S
ROCKY MOUNT    CLEAR     75  73  93 S6        30.04S
ROANOKE RAPIDS NOT AVBL
FAYETTEVILLE   CLEAR     76  74  93 SW6       30.05S
HOFFMAN        CLEAR     72  71  95 CALM      30.08R

.........WESTERN NC.........

CITY           SKY/WX    TMP DP  RH WIND       PRES   REMARKS
CHARLOTTE      PTCLDY    72  67  84 CALM      30.07F
GREENSBORO     CLEAR     72  69  90 SW5       30.06S
HICKORY        NOT AVBL
BOONE          NOT AVBL
ASHEVILLE      NOT AVBL

.....................REST OF SOUTH CAROLINA.....................

.........EASTERN SC.........

CITY           SKY/WX    TMP DP  RH WIND       PRES   REMARKS
CHARLESTON     CLEAR     79  76  90 CALM      30.05F
BEAUFORT MCAS  CLEAR     78  76  93 W3        30.04F
HILTON HEAD    NOT AVBL

.........CENTRAL SC.........

CITY           SKY/WX    TMP DP  RH WIND       PRES   REMARKS
COLUMBIA       PTCLDY    75  72  90 W5        30.05S
ORANGEBURG     CLEAR     75  72  90 CALM      30.05F
SUMTER SHAW    PTCLDY    76  75  97 S2        30.05S

.........WESTERN SC.........

CITY           SKY/WX    TMP DP  RH WIND       PRES   REMARKS
GREENVILLE     NOT AVBL
ROCK HILL      PTCLDY    70  69  97 SW6       30.08S
ANDERSON       CLEAR     71  70  96 CALM      30.09R
CLEMSON        NOT AVBL
GREENWOOD      CLEAR     73  69  87 W3        30.09S


...................COASTAL AND OFFSHORE REPORTS..................

................LOCAL PIERS AND NC RESERVE................


STATION/POSITION TIME  SKY/WX   TEMP    WIND        PRES    VSBY
                                AIR SEA DIR/SP/G
                 (UTC)          (F)     (DEG/KT/KT) (MB)    (MI)
JOHNY MRCER PIER 0900            80 83  220/  7/  8 1017.3R
NC RESRV MASNBRO 0800            78     250/  1     1018.0S
OCEAN CREST PIER 0900            82 84  200/ 13/ 14 1016.8F
SPRINGMAID  PIER 0900            80 84  240/  4/  5 1017.8R


................COASTAL AND OFFSHORE BUOYS................


STATION/POSITION TIME  SKY/WX   TEMP    WIND        PRES    VSBY
                                AIR SEA DIR/SP/G
                 (UTC)          (F)     (DEG/KT/KT) (MB)    (MI)
DIMNDSHOAL 41025 0900            80     240/ 16/ 17 1017.4S
WVE H/P(F/S)=  4/ 4 WND WVE H/P(F/S)=  3/ 4 SWL H/P/D(F/S/D)=  2/ 60/11

CAPE LOOKOUT     0800            81     240/  9/ 13 1017.9S
ONSLOW BAY 41036 0900            81 82  250/ 12/ 14 1018.1F
WVE H/P(F/S)=  3/10 WND WVE H/P(F/S)=  2/ 4 SWL H/P/D(F/S/D)=  2/ 90/10

5 WRITEBCH 41038 0800            78 83  250/ 10/ 10   N/A
MASONBORO  41110 0900               83                N/A
WVE H/P(F/S)=  2/11 WND WVE H/P(F/S)=  2/ 9 SWL H/P/D(F/S/D)=  2/100/11

WILM HARBR 41108 0900               83                N/A
WVE H/P(F/S)=  2/ 3 WND WVE H/P(F/S)=  2/ 3

27WRITEBCH 41037 NOT AVBL
FRYING PAN 41013 NOT AVBL
SUNST NRSH 41024 0800            83     240/ 12/ 14 1017.7F
CAPRS NRSH 41029 0800            82     220/ 12/ 14   N/A
EDISTO     41004 0900            83 84  230/ 10/ 10 1017.3F
WVE H/P(F/S)=  2/ 8 WND WVE H/P(F/S)=  2/ 3 SWL H/P/D(F/S/D)=  2/ 8



..........OFFSHORE BUOYS BEYOND 100 NM OFFSHORE...........
.....IN A TRIANGLE---HAT TO BERMUDA TO BAHAMAS TO HAT.....


STATION/POSITION TIME  SKY/WX   TEMP    WIND        PRES    VSBY
                                AIR SEA DIR/SP/G
                 (UTC)          (F)     (DEG/KT/KT) (MB)    (MI)
150E HAT   41001 NOT AVBL
W BERMUDA  41048 0803            78 79   CALM  /  2 1020.1S
WVE H/P(F/S)=  4/11 SWL H/P/D(F/S/D)=  3/ 70/11

ATLANTIC S 41049 0751            83 85  100/  6/  8 1019.2
WVE H/P(F/S)=  5/13 WND WVE H/P(F/S)=  2/ 4 SWL H/P/D(F/S/D)=  5/ 30/13

E BAHAMAS  41046 0841            82 84  120/ 12/ 14 1016.6F
WVE H/P(F/S)=  4/ 9 WND WVE H/P(F/S)=  2/ 5 SWL H/P/D(F/S/D)=  3/ 40/ 9

NE BAHAMAS 41047 0834            81 84   80/  8/ 10 1018.9R
WVE H/P(F/S)=  4/ 7 WND WVE H/P(F/S)=  2/ 4 SWL H/P/D(F/S/D)=  3/130/ 7

120E CANVRL41010 0900            82 84  140/  4/  6 1018.0F
WVE H/P(F/S)=  3/ 7 SWL H/P/D(F/S/D)=  3/ 80/ 7


END



USA.gov is the U.S. government's official web portal to all federal, state and local government web resources and services.